COSMOS 1275 DEB, 18592

Orbit data source: Space-Track

COSMOS 1275 DEB, 18592 is space debris in LEO originally from a launch on Thu, 04 Jun 1981 UTC launched from the Plesetsk Missile And Space Complex (PKMTR). Debris objects in space refer to the collection of defunct objects orbiting the Earth. Examples of debris include non-operational satellites, rocket bodies, and fragments generated from explosions, collisions, or faulty payload assembly.

Loading next visibility...
Identifier
18592, 1981-053LU
Orbit
LEO
Country
Flag of CISCIS
Related business
Manufacturer
Unknown
Mission
Spacecraft
Bus & Motor
Unknown
Mass
Unknown
Launch date (UTC)
1981-06-04 (45 years ago)
Launch vehicle
Unknown
Launch site
Plesetsk Missile And Space Complex (PKMTR)
Object type
Payload
Rocket body
Debris
Shape & HBR
Unknown shape, 0.1 m
Radar Cross Section
Medium (>0.1 m² and <1 m²)

Expand to show TLE details & history
Last TLE update: 22 hours ago

TLE from 22 hours ago
0 COSMOS 1275 DEB
1 18592U 81053LU  26262.56739877  .00001949  00000-0  68477-3 0  9990
2 18592  82.9370 355.8848 0010261 201.9621 219.0790 14.34531885717249
Epoch: 2026-09-19T13:37Z
TLE epoch observation values (Epoch: 2026-09-19T13:37:03.253Z)
Latitude
60.28871°
Longitude
165.6195°
Altitude
792.61 km
Speed
7.46 km/s
True Right ascension
00h 33m 25s
True Declination
60° 08' 28"
Sunlit
Object was in full shadow at epoch
Visualization orbit readout
Latitude
Unknown
Longitude
Unknown
Altitude
Unknown
Speed
Unknown
Apparent Right ascension
Unknown
Apparent Declination
Unknown
Sunlit
N/A
Visualization observer readout
Local Sidereal Time
04:29:38
Azimuth
Unknown
Elevation
Unknown
Doppler factor
Unknown
Orbital elements
Apogee altitude
781.028 km
Perigee altitude
766.351 km
Semi-major axis
7,151.827 km
Eccentricity
0.00103
Inclination
82.937°
RAAN
355.8848°
Arg. of periapsis
201.9621°
True anomaly
219.00495°
Mean anomaly
219.079°
Eccentric anomaly
219.04197°
Mean motion
3.58854 °/min
Orbital period
100.32 mins
BSTAR
0.00068477
Loading maneuver chart data...
Computing Atmospheric mass density...

Documentation

Showing up to 5 results
|